THORAD AGENA D DEB, 4653

Orbit data source: Space-Track

THORAD AGENA D DEB, 4653 is space debris in SSO originally from a launch on Wed, 08 Apr 1970 UTC launched from the Air Force Western Test Range (AFWTR). Debris objects in space refer to the collection of defunct objects orbiting the Earth. Examples of debris include non-operational satellites, rocket bodies, and fragments generated from explosions, collisions, or faulty payload assembly.

Loading next visibility...
THORAD AGENA D DEB details
Identifier
4653, 1970-025AM
Orbit
SSO
Last TLE update23 hours ago
Origin
Flag of USGSFC (US)
ManufacturerUnknown
MissionSpacecraft
Bus & MotorUnknown
MassUnknown
Launch date (UTC)
1970-04-08 (55 years ago)
Launch vehicleUnknown
Launch site
Air Force Western Test Range (AFWTR)
Object type
Payload
Rocket body
Debris
Shape & HBRUnknown
Radar Cross SectionSmall (<0.1 m²)

Expand to show TLE details & history

TLE from 23 hours ago
0 THORAD AGENA D DEB
1 04653U 70025AM  24360.48503901  .00027046  00000-0  67417-2 0  9993
2 04653 100.0061 195.3173 0015150  62.4970 297.7757 14.51509295788612
Epoch: 2024-12-25T11:38Z
Definitive object data (Epoch: 2024-12-25T11:38:27.37Z)
Latitude-0.00005°
Longitude-73.77485°
Altitude718.636 km
Speed7.499 km/s
True Right ascension13h 01m 16s
True Declination0° 00' 00"
Sunlit
Object was in daylight at TLE epoch
Visualization TLE readout
Latitude35.52801°
Longitude-79.81814°
Altitude715.423 km
Speed7.506 km/s
Apparent Right ascension16h 28m 38s
Apparent Declination0° 32' 08"
Sunlit
Object is in daylight
Visualization observer readout
Local Sidereal Time10:19:16
Azimuth88.086° E
Elevation-1.452°
Doppler factor1
Orbital elements
Apogee altitude728.658 km
Perigee altitude707.157 km
Semi-major axis7,096.044 km
Eccentricity0.001515
Inclination100.0061°
RAAN195.3173°
Arg. of periapsis62.497°
True anomaly297.62196°
Mean anomaly297.7757°
Eccentric anomaly297.69884°
Mean motion3.63094 °/min
BSTAR0.0067417
Orbital period99.15 mins
Loading maneuver chart data...

THORAD AGENA D DEB Visibility forecast

Observer location: undefined°, undefined

Span
Click to sort rows by Start time (UTC) header in descending order
Start Az.
Max El. time (UTC)
Max El. Az.
Max El.
End time (UTC)
End Az.
8 mins2024-12-26 12:34:59.840Z137.38° SSE2024-12-26 12:38:59.840Z70.614° E34.244°2024-12-26 12:42:59.840Z0.997° NNE
5 mins2024-12-26 14:14:59.840Z232.13° WSW2024-12-26 14:16:59.840Z262.431° W18.275°2024-12-26 14:19:59.840Z305.298° NW
8 mins2024-12-27 02:15:59.840Z14.92° NNE2024-12-27 02:19:59.840Z203.129° SW44.518°2024-12-27 02:23:59.840Z197.182° SSW
|